Wind_Speed
5 7 16 12 8 13 15 9 7 7 14 16 12 10 7 5 1 2 9 12 12 13 14 15 13 5 4 2 2 2 4 5 8 9 9 8 9 10 13 14 13 12 14 16 17 18 17 19 20
13 21 14 10 18 21 15 13 14 12 11 9 9 9 9 9 7 7 9 12 15 14 12 12 11 7 6 4 3 4 4 6 7 9 9 9 9 11 14 15 16 19 19 18 20 20 20 20 21
21 18 17 16 18 18 13 13 11 11 10 10 10 9 11 9 8 5 8 10 13 13 9 7 6 6 7 6 8 7 9 8 9 8 7 6 8 10 13 15 18 19 17 19 20 20 20 20 21
17 16 17 20 20 15 12 10 10 10 13 13 9 4 11 10 8 9 11 11 10 7 6 7 8 9 10 11 12 11 12 13 12 12 11 10 10 10 13 16 18 18 18 18 18 19 19 20 21
18 20 24 23 22 19 14 9 8 8 11 11 9 9 12 9 7 7 6 6 6 5 4 6 8 9 11 14 15 17 17 18 15 13 13 13 12 12 12 15 16 17 16 16 18 18 17 18 19
19 17 21 22 20 17 14 9 2 3 6 6 7 6 7 11 8 4 4 3 1 3 6 8 7 7 9 12 14 14 14 12 9 8 7 6 7 6 7 10 11 12 11 10 10 11 14 16 17
15 20 18 19 15 11 8 6 3 3 4 4 5 4 5 6 7 6 5 4 3 6 6 5 4 7 7 8 10 11 9 9 6 3 1 4 6 3 2 2 3 5 7 8 9 9 5 7 12
15 15 17 13 11 8 6 2 3 4 4 2 4 3 7 7 7 1 4 6 6 5 6 2 4 5 7 10 13 8 9 8 8 5 4 8 9 9 8 6 4 5 7 8 8 8 7 10 12
13 18 12 9 6 8 5 2 2 6 3 2 1 2 3 2 3 5 4 3 3 4 2 1 3 6 11 13 14 9 8 7 6 6 7 8 9 10 9 9 9 11 12 13 12 13 13 13 14
11 11 7 4 2 2 3 3 6 8 5 2 2 3 6 7 7 7 6 5 3 2 2 5 11 16 17 17 16 12 9 10 11 10 10 10 11 11 11 12 13 14 14 15 16 16 16 17 17
10 7 5 3 2 5 5 7 10 8 2 6 8 11 13 11 9 8 5 4 3 5 7 9 14 15 15 15 14 14 14 15 15 15 15 15 14 15 16 17 18 19 19 20 20 20 20 20 20
18 16 11 9 6 5 4 3 3 5 6 10 8 9 10 10 11 9 6 5 6 8 9 13 13 16 19 18 17 17 16 18 19 19 19 18 18 19 20 21 23 24 25 25 25 24 25 24 24
13 8 5 3 3 4 2 3 3 4 4 3 5 5 5 8 9 12 9 9 7 8 10 12 13 17 19 20 21 21 20 21 22 23 23 22 22 23 24 25 26 27 28 29 28 28 28 27 27
7 5 2 2 4 1 2 1 1 5 7 3 1 2 3 5 7 9 7 8 7 7 8 10 14 19 21 22 22 20 20 22 23 24 25 26 26 27 28 29 30 30 30 30 30 30 29 29 29
5 3 2 1 2 5 5 4 1 5 6 4 3 2 3 5 7 7 7 7 6 5 7 10 14 19 23 24 24 21 20 23 25 26 27 28 29 29 30 30 31 31 31 31 30 29 29 29 30
2 1 2 3 1 5 8 9 4 12 15 12 10 5 4 6 9 7 6 7 7 7 9 11 15 17 19 21 17 16 19 21 25 25 25 26 28 30 31 31 31 31 30 30 29 29 30 30 30
2 2 6 2 2 5 9 18 20 15 16 7 8 8 8 9 11 8 7 7 7 9 11 15 16 15 17 18 17 22 24 25 32 29 29 27 26 27 29 30 31 31 32 32 33 32 32 31 31
6 8 10 12 13 15 16 20 17 13 10 4 6 6 9 10 10 10 10 10 4 9 14 17 19 17 19 23 23 28 28 31 33 33 34 36 30 28 29 29 29 30 29 28 29 31 32 32 31
7 11 14 13 11 18 17 13 8 5 9 8 4 4 6 10 13 12 10 5 5 6 13 19 20 21 26 28 26 26 27 29 30 32 33 36 32 30 30 30 31 33 34 31 31 30 31 31 31
10 12 12 8 11 16 8 4 6 7 6 3 2 2 5 6 10 10 9 10 15 16 13 14 16 21 26 29 30 31 30 32 30 33 35 38 39 36 36 36 35 37 38 37 37 39 39 39 37
8 7 13 15 14 6 9 2 3 4 4 5 4 2 6 7 7 7 12 15 19 22 17 17 20 25 28 28 30 36 38 40 42 39 42 44 48 40 39 41 42 41 42 42 42 43 45 44 44
12 13 14 13 10 1 9 2 10 3 3 5 5 3 5 7 10 12 16 21 21 22 24 23 24 27 30 32 34 37 40 43 42 44 51 50 45 40 41 45 46 45 44 45 42 44 49 48 49
10 14 16 10 4 2 3 2 5 8 6 6 7 5 7 11 15 19 20 21 24 26 23 25 26 28 32 33 36 38 41 45 49 54 51 46 46 45 44 46 48 49 49 50 48 49 52 53 54
13 13 5 3 2 2 1 9 7 4 10 13 4 2 6 12 17 17 20 26 26 23 24 26 28 30 32 34 37 39 44 49 48 47 48 47 47 47 47 49 51 52 54 53 52 55 57 57 59
11 7 2 2 3 3 4 5 4 7 7 5 5 7 11 14 16 21 25 28 25 25 27 29 31 33 35 36 39 45 44 42 45 47 48 47 47 48 50 50 52 52 52 51 48 49 56 60 63
10 10 5 2 1 6 5 5 10 10 11 5 6 16 19 24 22 22 28 26 25 28 30 32 34 36 38 43 42 41 44 48 47 44 44 48 51 51 51 51 48 45 41 38 36 39 52 65 61
4 5 6 1 2 3 4 3 9 20 17 19 27 32 28 21 18 23 23 25 27 27 30 34 37 41 44 43 46 49 48 45 43 46 50 52 51 51 51 42 36 32 30 30 35 44 50 44 46
2 2 3 4 2 3 8 13 6 16 18 28 32 28 27 23 18 20 24 26 29 34 38 43 50 54 54 51 47 42 42 46 50 51 54 52 51 48 38 31 27 27 26 28 35 43 44 44 41
2 1 2 2 2 3 3 7 11 21 25 27 28 33 31 26 25 28 30 33 38 45 50 51 52 49 49 42 42 43 48 53 54 56 57 54 49 39 32 29 30 29 26 28 30 33 35 37 37
4 3 6 3 2 8 12 18 11 9 20 32 31 34 29 27 29 32 36 41 46 51 54 51 47 44 40 41 44 49 53 53 55 56 52 48 40 33 33 33 32 27 29 30 32 33 34 37 40
Wind_Direction
187 125 119 127 118 114 101 92 141 99 86 95 98 83 71 73 139 209 159 139 128 118 120 122 125 147 244 91 174 136 283 280 265 270 268 270 273 272 270 276 276 286 285 282 281 278 285 275 284
127 119 109 99 125 97 89 93 94 87 82 84 89 88 74 70 73 133 152 147 131 123 123 110 104 111 107 85 39 12 330 334 315 307 314 307 294 292 297 292 290 291 291 286 279 276 275 273 275
119 115 109 109 106 101 111 110 97 98 102 101 82 79 53 48 58 129 150 127 116 109 98 87 82 57 46 15 355 348 335 329 318 312 312 306 298 290 279 284 283 278 279 277 279 277 271 265 272
109 117 104 112 95 96 111 109 96 92 87 82 81 56 34 30 84 110 120 123 107 83 51 39 19 6 356 348 340 330 329 326 323 320 311 301 290 284 281 278 277 276 279 278 277 277 274 263 267
121 119 113 102 95 92 102 103 88 71 65 63 53 45 10 31 108 126 111 77 49 21 3 348 355 352 341 336 335 335 334 326 325 327 329 321 306 285 269 266 271 274 277 272 268 267 265 264 268
119 129 120 108 104 99 97 96 95 85 67 29 26 5 69 60 133 130 119 33 9 314 325 346 341 335 323 338 338 329 316 312 309 309 324 334 328 320 296 281 281 286 285 286 289 280 268 266 268
139 140 121 113 117 110 111 116 94 58 33 11 85 58 78 80 129 184 216 266 267 304 337 354 359 1 347 334 334 328 339 343 329 313 268 334 343 358 17 359 338 332 329 326 323 309 305 286 276
153 145 132 133 126 116 119 132 311 5 9 72 74 49 52 88 79 47 253 251 292 317 322 325 323 328 352 353 355 353 4 27 27 24 351 344 345 342 342 341 331 303 300 306 307 302 293 298 300
140 131 135 140 139 154 164 217 321 347 356 111 327 345 38 61 6 342 360 22 2 334 271 305 354 2 352 347 347 334 331 345 358 10 353 344 337 335 331 329 319 314 310 303 297 295 296 293 294
121 133 133 151 147 190 196 221 308 343 347 89 89 75 44 21 15 18 34 46 44 63 322 356 10 354 341 339 342 340 322 336 340 337 327 318 314 310 307 305 303 300 298 296 293 286 283 286 290
113 110 110 92 279 241 250 289 315 330 345 88 82 67 61 45 37 30 30 58 31 10 16 21 21 355 340 338 340 337 325 326 329 326 320 310 301 298 297 294 292 289 288 286 283 281 278 277 279
110 100 87 72 69 89 82 51 8 30 86 96 92 74 59 48 41 30 31 35 38 45 36 37 19 356 349 342 340 330 321 318 319 319 317 310 302 295 291 289 288 287 286 284 283 281 278 278 276
105 95 92 83 56 62 95 80 91 45 71 85 64 55 36 26 20 23 33 41 52 58 47 32 7 355 353 349 345 338 331 326 322 320 316 310 302 296 291 287 284 282 282 282 282 280 279 275 273
110 130 130 256 272 306 44 124 149 335 318 275 168 0 1 341 357 7 30 37 53 49 24 8 355 350 349 345 339 334 334 332 327 324 320 315 308 301 296 291 288 287 284 282 280 279 275 272 270
114 147 156 216 254 223 298 226 293 287 333 325 271 265 315 301 311 346 12 22 27 23 8 354 346 341 341 341 337 341 349 343 335 329 324 318 312 306 301 296 293 289 287 286 283 280 276 274 272
139 39 298 2 194 227 277 215 292 295 287 304 279 254 262 275 274 318 354 3 350 334 323 320 318 333 344 336 334 339 342 342 339 334 331 321 313 307 302 298 295 292 290 288 287 283 280 277 273
316 351 9 261 309 266 296 293 312 301 285 293 255 255 250 242 255 289 325 330 338 322 315 301 300 317 342 337 318 324 325 331 336 331 335 329 317 309 304 300 298 295 293 293 291 290 287 283 280
335 341 340 337 304 287 292 296 307 293 285 224 243 259 258 238 244 273 296 300 295 292 291 288 283 288 327 331 328 328 325 325 329 320 328 334 324 316 309 306 304 300 297 294 290 287 286 286 284
334 327 323 321 308 304 315 328 358 306 270 249 217 281 250 228 238 263 275 246 338 319 285 282 285 291 303 318 324 326 317 316 319 324 315 330 320 311 305 304 301 296 295 297 295 291 289 286 284
320 310 313 316 317 314 310 346 52 72 87 146 238 229 193 223 249 252 238 301 331 341 343 301 297 306 311 319 322 319 317 319 310 312 317 323 322 308 303 298 296 292 291 291 291 290 287 286 282
339 324 320 314 319 325 309 152 16 41 43 359 327 208 185 217 232 287 310 316 324 331 340 329 327 328 321 313 312 320 320 320 318 311 315 315 317 307 301 299 296 289 284 284 286 289 287 285 281
339 320 313 307 311 234 15 181 25 27 352 325 316 233 245 279 311 319 311 320 332 339 340 336 330 326 325 320 315 315 316 313 314 311 312 311 308 305 301 298 295 291 287 283 281 279 279 272 272
328 321 313 303 263 223 30 6 30 46 26 289 274 302 313 326 322 314 327 332 330 333 328 323 316 315 318 313 307 307 310 311 306 307 307 309 308 303 299 294 292 290 287 284 279 274 269 273 268
326 325 327 72 103 59 28 360 24 45 63 67 77 15 324 316 316 316 322 322 320 316 309 306 308 300 299 300 304 301 302 307 307 309 309 309 307 305 300 294 289 285 282 279 277 272 269 267 269
345 1 356 359 12 209 323 310 118 101 85 82 182 247 278 311 303 299 303 305 302 300 294 296 289 285 285 293 295 301 305 308 310 311 309 308 307 306 303 299 293 289 284 280 277 269 264 269 263
12 33 59 193 312 294 322 202 159 153 129 152 277 291 288 294 301 287 289 291 292 285 281 279 277 285 294 301 307 310 310 310 310 309 309 308 306 306 304 300 296 292 287 283 279 279 268 257 254
359 53 52 70 320 301 287 280 198 245 245 292 309 315 323 327 300 287 286 282 278 277 282 288 293 296 303 311 311 312 310 308 308 311 314 313 310 307 305 299 293 292 292 290 286 275 256 255 252
350 60 4 5 53 311 307 308 300 231 280 310 318 327 328 328 306 291 289 286 290 294 298 303 303 305 307 306 310 310 311 311 312 312 314 313 309 304 303 296 293 286 288 285 286 272 276 286 295
240 281 49 18 309 187 293 254 284 290 305 320 319 328 323 316 307 304 301 300 302 304 307 308 306 307 310 310 310 310 311 309 312 315 312 307 302 302 303 298 293 282 279 285 289 293 295 296 298
308 285 344 5 326 284 274 279 308 271 314 315 315 314 311 308 305 302 301 304 306 305 305 305 304 305 309 310 310 312 310 315 313 310 308 303 296 294 294 292 293 300 294 290 288 287 289 291 291
Height
3141 3141 3143 3145 3150 3149 3153 3156 3157 3158 3160 3161 3162 3163 3163 3163 3164 3168 3164 3164 3167 3168 3167 3167 3168 3168 3171 3172 3174 3173 3173 3173 3174 3174 3171 3171 3170 3169 3168 3166 3166 3167 3167 3166 3166 3165 3165 3165 3163
3141 3142 3145 3146 3149 3149 3154 3158 3157 3158 3161 3162 3164 3163 3164 3164 3164 3165 3166 3166 3166 3168 3170 3169 3170 3172 3171 3173 3174 3173 3174 3173 3174 3173 3172 3171 3169 3168 3167 3167 3165 3165 3166 3165 3164 3162 3162 3161 3161
3142 3144 3147 3149 3149 3150 3154 3157 3158 3160 3162 3162 3164 3164 3164 3165 3165 3165 3166 3167 3167 3170 3171 3173 3172 3172 3173 3174 3173 3171 3172 3171 3170 3170 3169 3167 3166 3165 3165 3163 3162 3165 3164 3164 3161 3160 3159 3159 3157
3144 3145 3149 3149 3151 3153 3154 3157 3159 3161 3161 3162 3163 3165 3165 3165 3165 3167 3167 3169 3168 3170 3172 3173 3173 3173 3173 3172 3171 3171 3170 3169 3167 3166 3166 3164 3163 3163 3162 3161 3160 3160 3159 3158 3157 3156 3156 3155 3153
3145 3147 3148 3152 3154 3156 3157 3159 3161 3162 3162 3162 3162 3163 3165 3165 3166 3167 3169 3170 3169 3171 3172 3172 3171 3172 3171 3171 3170 3168 3167 3165 3163 3163 3162 3162 3161 3160 3159 3158 3158 3156 3155 3155 3154 3152 3151 3150 3149
3145 3150 3151 3151 3155 3157 3159 3161 3163 3162 3163 3163 3164 3163 3165 3166 3167 3168 3170 3170 3171 3172 3172 3171 3170 3169 3169 3168 3166 3164 3162 3160 3159 3159 3158 3159 3158 3157 3156 3156 3156 3154 3153 3152 3151 3149 3149 3147 3146
3146 3150 3153 3155 3156 3157 3160 3162 3162 3163 3162 3163 3163 3164 3165 3165 3165 3168 3169 3169 3169 3171 3170 3169 3168 3167 3167 3166 3164 3162 3160 3158 3157 3156 3156 3156 3155 3154 3153 3153 3152 3152 3152 3151 3149 3148 3146 3145 3143
3148 3150 3153 3157 3158 3159 3162 3162 3161 3161 3162 3163 3163 3164 3164 3165 3164 3169 3167 3169 3169 3168 3167 3167 3166 3167 3166 3164 3162 3161 3160 3158 3157 3156 3156 3156 3154 3154 3153 3152 3151 3149 3148 3147 3146 3146 3145 3144 3142
3149 3151 3155 3157 3158 3160 3160 3163 3162 3162 3162 3163 3163 3161 3163 3163 3161 3166 3165 3166 3166 3165 3166 3165 3165 3164 3163 3162 3161 3159 3158 3158 3157 3156 3155 3154 3153 3152 3150 3150 3148 3147 3146 3145 3144 3143 3141 3141 3139
3150 3153 3157 3159 3159 3161 3160 3161 3163 3161 3163 3163 3161 3162 3164 3162 3161 3163 3163 3163 3165 3165 3165 3164 3162 3162 3160 3160 3158 3157 3157 3157 3155 3154 3153 3152 3151 3149 3148 3147 3145 3144 3143 3142 3140 3139 3139 3137 3136
3152 3155 3158 3158 3159 3159 3162 3162 3161 3161 3162 3162 3160 3162 3161 3161 3161 3162 3163 3163 3163 3163 3162 3161 3160 3160 3159 3157 3156 3155 3155 3154 3153 3152 3150 3149 3147 3145 3144 3143 3141 3139 3138 3137 3135 3134 3133 3132 3131
3152 3155 3158 3159 3161 3160 3161 3161 3159 3162 3162 3161 3160 3159 3160 3161 3161 3161 3161 3161 3161 3161 3160 3159 3159 3159 3157 3156 3155 3154 3152 3151 3149 3148 3147 3146 3144 3142 3140 3139 3137 3135 3133 3132 3130 3128 3127 3126 3125
3156 3158 3160 3160 3161 3161 3161 3160 3161 3163 3162 3161 3161 3159 3160 3160 3160 3159 3159 3159 3159 3159 3159 3159 3159 3158 3156 3154 3152 3151 3149 3147 3146 3144 3142 3141 3139 3137 3134 3132 3130 3128 3127 3125 3123 3122 3120 3120 3119
3154 3158 3158 3161 3161 3160 3162 3161 3160 3162 3161 3160 3160 3160 3160 3159 3159 3158 3158 3158 3158 3157 3158 3157 3157 3156 3154 3152 3150 3148 3146 3144 3142 3140 3137 3135 3133 3130 3128 3125 3123 3121 3119 3118 3116 3115 3114 3113 3112
3155 3159 3158 3159 3158 3159 3160 3159 3159 3160 3159 3159 3158 3158 3159 3159 3159 3159 3158 3158 3158 3157 3156 3156 3155 3154 3152 3150 3147 3146 3144 3141 3138 3135 3132 3130 3127 3124 3121 3119 3116 3114 3111 3110 3109 3108 3107 3106 3105
3157 3159 3159 3158 3157 3158 3159 3156 3158 3158 3156 3156 3156 3156 3157 3158 3158 3158 3158 3157 3157 3156 3155 3155 3155 3154 3151 3148 3145 3143 3140 3138 3135 3132 3129 3125 3122 3118 3116 3113 3110 3107 3105 3103 3101 3100 3099 3098 3097
3157 3158 3158 3158 3157 3157 3156 3153 3155 3153 3151 3152 3153 3154 3154 3155 3156 3156 3156 3156 3155 3154 3154 3153 3153 3151 3148 3146 3143 3140 3137 3135 3131 3127 3123 3119 3115 3112 3110 3107 3105 3102 3100 3098 3095 3093 3091 3090 3089
3157 3157 3156 3155 3155 3154 3154 3152 3150 3148 3148 3150 3151 3152 3152 3153 3154 3154 3154 3154 3153 3152 3152 3151 3149 3148 3145 3143 3140 3136 3134 3131 3128 3124 3119 3115 3110 3106 3103 3100 3098 3095 3093 3091 3089 3086 3084 3083 3081
3156 3155 3154 3154 3154 3151 3150 3149 3147 3146 3147 3149 3150 3149 3149 3151 3153 3153 3152 3152 3150 3149 3149 3147 3146 3144 3142 3138 3135 3132 3129 3125 3123 3119 3115 3111 3106 3102 3097 3094 3091 3088 3085 3083 3081 3079 3077 3076 3074
3155 3154 3154 3153 3153 3150 3148 3148 3147 3146 3146 3147 3147 3148 3149 3150 3151 3151 3150 3149 3147 3146 3145 3144 3143 3141 3137 3132 3128 3125 3122 3118 3115 3112 3108 3104 3100 3095 3090 3087 3084 3081 3077 3075 3073 3070 3068 3067 3065
3155 3154 3152 3151 3149 3148 3147 3147 3146 3145 3145 3146 3147 3147 3148 3149 3149 3149 3148 3146 3144 3142 3141 3140 3137 3134 3129 3124 3120 3116 3113 3110 3107 3104 3099 3095 3091 3087 3082 3078 3074 3071 3068 3064 3062 3059 3056 3053 3053
3153 3151 3149 3147 3147 3147 3147 3147 3145 3145 3145 3145 3145 3146 3147 3147 3147 3145 3144 3142 3140 3137 3136 3133 3131 3127 3123 3119 3116 3112 3108 3103 3100 3095 3090 3086 3082 3077 3072 3067 3063 3059 3056 3052 3050 3047 3044 3041 3039
3152 3148 3145 3143 3144 3145 3147 3147 3147 3145 3144 3143 3145 3146 3146 3145 3143 3141 3139 3137 3135 3131 3129 3127 3124 3120 3117 3114 3109 3105 3100 3096 3091 3086 3080 3075 3071 3066 3062 3058 3053 3047 3043 3040 3037 3033 3030 3027 3026
3149 3146 3144 3143 3143 3145 3147 3148 3146 3144 3144 3143 3144 3144 3143 3141 3139 3137 3135 3133 3131 3129 3126 3123 3119 3115 3111 3107 3103 3098 3093 3087 3081 3077 3070 3065 3059 3054 3050 3045 3040 3035 3030 3026 3023 3020 3017 3015 3013
3149 3145 3145 3147 3147 3148 3146 3146 3145 3144 3143 3143 3142 3141 3140 3138 3137 3135 3133 3130 3127 3123 3120 3116 3112 3108 3104 3099 3095 3090 3084 3077 3070 3064 3058 3052 3046 3040 3035 3029 3023 3018 3014 3010 3007 3005 3004 3002 3000
3150 3149 3149 3153 3155 3147 3144 3143 3144 3142 3141 3140 3141 3139 3138 3136 3134 3131 3128 3124 3120 3116 3112 3108 3104 3100 3096 3091 3084 3078 3072 3065 3060 3053 3047 3041 3032 3025 3018 3013 3007 3002 2998 2996 2995 2995 2993 2988 2984
3151 3151 3152 3150 3150 3149 3143 3142 3143 3138 3137 3135 3134 3133 3131 3130 3127 3124 3121 3117 3113 3109 3106 3101 3096 3092 3086 3079 3073 3068 3063 3056 3050 3044 3036 3028 3020 3012 3004 3000 2995 2991 2988 2987 2988 2985 2981 2976 2975
3152 3153 3152 3151 3154 3153 3143 3140 3139 3137 3136 3133 3129 3128 3126 3123 3121 3118 3115 3111 3107 3103 3098 3093 3087 3081 3074 3068 3063 3057 3051 3044 3037 3030 3022 3013 3005 2998 2993 2990 2987 2985 2982 2978 2978 2976 2971 2968 2967
3152 3151 3151 3152 3152 3152 3151 3141 3138 3135 3133 3129 3127 3123 3120 3118 3115 3112 3109 3105 3100 3095 3089 3083 3077 3071 3065 3058 3053 3046 3038 3031 3023 3015 3008 3000 2993 2989 2984 2981 2980 2977 2975 2972 2969 2967 2964 2962 2960
3150 3150 3150 3150 3153 3152 3149 3135 3133 3131 3129 3127 3124 3120 3116 3113 3110 3106 3102 3097 3093 3087 3080 3071 3065 3060 3054 3048 3042 3036 3028 3019 3011 3003 2995 2989 2984 2980 2977 2975 2973 2970 2967 2964 2962 2959 2957 2954 2951